ELY197 MPTO-LLBG

Flight info

Callsign ELY197
Flight time N/A
Altitude 35000
Route EGETA3A EGETA DCT AGUJA UM597 LIDOL UG444 BOTES G444 GTK DCT LAMER/M082F350 DCT BALTN DCT QINCY/M082F370 DCT SOORY NATZ ATSUR/M082F390 DCT TAKAS/N0471F390 DCT ALUTA DCT KORER DCT LEMKA/N0479F410 DCT BEBIX/N0475F400 DCT VALKU/N0481F410 DCT TIS DCT MEBAK DCT GIPNO DCT BALSI DCT OBIGO DCT ROBEX DCT LAPRI/N0475F400 DCT MOGBO/N0480F410 DCT LURUT DCT EDUGI DCT RILIM DCT KOFER DCT PINDO DCT NEVRA DCT AKINA DCT VANZA DCT PIKOG L609 ZUKKO
Aircraft B772/H-SDE2E3FGHIJ5LORVWXY/LB1D1

Departure

Time 2026-05-06 19:47
Airport Tocumen International Airport (MPTO)

Arrival

Time N/A
Airport Ben Gurion International Airport (LLBG)
Time Latitude Longitude Altitude Speed Heading
2026-05-06 19:28 9.08677 -79.37496 35 ft 0 kts 121°
2026-05-06 19:34 9.08688 -79.37513 33 ft 4 kts 132°
2026-05-06 19:34 9.08709 -79.37530 34 ft 4 kts 154°
2026-05-06 19:34 9.08733 -79.37537 33 ft 4 kts 186°
2026-05-06 19:35 9.08748 -79.37533 32 ft 0 kts 211°
2026-05-06 19:40 9.08747 -79.37534 35 ft 2 kts 211°
2026-05-06 19:41 9.08666 -79.37583 35 ft 22 kts 211°
2026-05-06 19:41 9.08538 -79.37660 35 ft 22 kts 211°
2026-05-06 19:41 9.08427 -79.37762 36 ft 22 kts 226°
2026-05-06 19:41 9.08321 -79.37871 36 ft 22 kts 226°
2026-05-06 19:42 9.08216 -79.37981 38 ft 22 kts 223°
2026-05-06 19:42 9.08094 -79.38069 38 ft 22 kts 211°
2026-05-06 19:42 9.07965 -79.38148 39 ft 22 kts 210°
2026-05-06 19:42 9.07834 -79.38224 38 ft 22 kts 210°
2026-05-06 19:43 9.07705 -79.38301 39 ft 22 kts 210°
2026-05-06 19:43 9.07592 -79.38370 39 ft 18 kts 211°
2026-05-06 19:43 9.07488 -79.38433 39 ft 17 kts 212°
2026-05-06 19:43 9.07417 -79.38477 39 ft 7 kts 212°
2026-05-06 19:44 9.07375 -79.38504 39 ft 7 kts 212°
2026-05-06 19:44 9.07332 -79.38530 39 ft 7 kts 210°
2026-05-06 19:44 9.07281 -79.38563 39 ft 9 kts 221°
2026-05-06 19:44 9.07264 -79.38624 42 ft 9 kts 267°
2026-05-06 19:45 9.07280 -79.38686 50 ft 9 kts 305°
2026-05-06 19:45 9.07338 -79.38694 48 ft 9 kts 22°
2026-05-06 19:45 9.07357 -79.38684 48 ft 0 kts 29°
2026-05-06 19:46 9.07363 -79.38681 48 ft 7 kts 29°
2026-05-06 19:46 9.07511 -79.38593 49 ft 53 kts 30°
2026-05-06 19:46 9.08040 -79.38275 47 ft 123 kts 31°
2026-05-06 19:47 9.08977 -79.37709 62 ft 182 kts 31°
2026-05-06 19:47 9.10045 -79.37000 729 ft 185 kts 40°
2026-05-06 19:47 9.11027 -79.36194 1570 ft 187 kts 37°
2026-05-06 19:47 9.12064 -79.35346 2246 ft 191 kts 37°
2026-05-06 19:48 9.13134 -79.34495 2543 ft 199 kts 36°
2026-05-06 19:48 9.14213 -79.33655 3064 ft 194 kts 37°
2026-05-06 19:48 9.15295 -79.32815 3336 ft 203 kts 38°
2026-05-06 19:48 9.16437 -79.31924 3445 ft 218 kts 38°
2026-05-06 19:49 9.17682 -79.30950 3573 ft 234 kts 38°
2026-05-06 19:49 9.19017 -79.29901 3747 ft 251 kts 38°
2026-05-06 19:49 9.20412 -79.28801 4163 ft 260 kts 38°
2026-05-06 19:49 9.21854 -79.27661 4581 ft 267 kts 39°
2026-05-06 19:50 9.23314 -79.26504 5189 ft 266 kts 39°
2026-05-06 19:50 9.24787 -79.25337 5679 ft 271 kts 39°
2026-05-06 19:50 9.26278 -79.24154 6176 ft 272 kts 39°
2026-05-06 19:50 9.27769 -79.22972 6732 ft 273 kts 39°
2026-05-06 19:51 9.29277 -79.21774 7205 ft 276 kts 39°
2026-05-06 19:51 9.30799 -79.20566 7703 ft 279 kts 40°
2026-05-06 19:51 9.32331 -79.19348 8188 ft 282 kts 40°
2026-05-06 19:51 9.33861 -79.18131 8703 ft 283 kts 40°
2026-05-06 19:52 9.35418 -79.16895 9187 ft 286 kts 40°
2026-05-06 19:52 9.36990 -79.15645 9677 ft 288 kts 40°
2026-05-06 19:52 9.38575 -79.14384 10118 ft 289 kts 41°
2026-05-06 19:52 9.40190 -79.13098 10302 ft 304 kts 40°
2026-05-06 19:53 9.41891 -79.11742 10436 ft 321 kts 40°
2026-05-06 19:53 9.43695 -79.10306 10565 ft 338 kts 40°
2026-05-06 19:53 9.45597 -79.08793 10726 ft 355 kts 40°
2026-05-06 19:53 9.47551 -79.07206 11112 ft 363 kts 44°
2026-05-06 19:54 9.49385 -79.05408 11646 ft 368 kts 49°
2026-05-06 19:54 9.51123 -79.03503 12340 ft 368 kts 50°
2026-05-06 19:54 9.52835 -79.01567 13038 ft 370 kts 51°
2026-05-06 19:54 9.54556 -78.99622 13678 ft 373 kts 51°
2026-05-06 19:55 9.56278 -78.97690 14219 ft 376 kts 50°
2026-05-06 19:55 9.58059 -78.95710 14804 ft 380 kts 50°
2026-05-06 19:55 9.59858 -78.93725 15399 ft 383 kts 50°
2026-05-06 19:55 9.61671 -78.91735 15996 ft 386 kts 50°
2026-05-06 19:56 9.63486 -78.89748 16596 ft 389 kts 49°
2026-05-06 19:56 9.65343 -78.87719 17197 ft 393 kts 49°
2026-05-06 19:56 9.67214 -78.85676 17778 ft 397 kts 49°
2026-05-06 19:56 9.69103 -78.83615 18356 ft 401 kts 49°
2026-05-06 19:57 9.71005 -78.81539 18905 ft 403 kts 49°
2026-05-06 19:57 9.72919 -78.79451 19456 ft 406 kts 49°
2026-05-06 19:57 9.74845 -78.77348 20010 ft 408 kts 49°
2026-05-06 19:57 9.76785 -78.75231 20558 ft 411 kts 48°
2026-05-06 19:58 9.78737 -78.73098 21094 ft 415 kts 48°
2026-05-06 19:58 9.80713 -78.70941 21636 ft 418 kts 48°
2026-05-06 19:58 9.82677 -78.68795 22157 ft 420 kts 48°
2026-05-06 19:58 9.84676 -78.66610 22683 ft 423 kts 48°
2026-05-06 19:59 9.86683 -78.64416 23191 ft 426 kts 48°
2026-05-06 19:59 9.88712 -78.62199 23626 ft 429 kts 48°
2026-05-06 19:59 9.90738 -78.59983 23978 ft 433 kts 47°
2026-05-06 19:59 9.92808 -78.57720 24333 ft 437 kts 47°
2026-05-06 20:00 9.94886 -78.55446 24688 ft 440 kts 47°
2026-05-06 20:00 9.96949 -78.53189 25032 ft 443 kts 47°
2026-05-06 20:00 9.99059 -78.50881 25367 ft 447 kts 47°
2026-05-06 20:00 10.01169 -78.48571 25696 ft 450 kts 47°
2026-05-06 20:01 10.03305 -78.46232 26037 ft 453 kts 47°
2026-05-06 20:01 10.05457 -78.43876 26346 ft 456 kts 47°
2026-05-06 20:01 10.07622 -78.41505 26668 ft 459 kts 47°
2026-05-06 20:01 10.09795 -78.39124 26989 ft 461 kts 47°
2026-05-06 20:02 10.11984 -78.36726 27299 ft 464 kts 47°
2026-05-06 20:02 10.14162 -78.34339 27579 ft 467 kts 47°
2026-05-06 20:02 10.16379 -78.31909 27870 ft 469 kts 46°
2026-05-06 20:02 10.18604 -78.29470 28103 ft 473 kts 46°
2026-05-06 20:03 10.20838 -78.27020 28449 ft 474 kts 46°
2026-05-06 20:03 10.23086 -78.24553 28719 ft 476 kts 46°
2026-05-06 20:03 10.25345 -78.22075 28963 ft 480 kts 46°
2026-05-06 20:03 10.27616 -78.19583 29185 ft 482 kts 46°
2026-05-06 20:04 10.29900 -78.17076 29450 ft 483 kts 46°
2026-05-06 20:04 10.32192 -78.14559 29769 ft 484 kts 46°
2026-05-06 20:04 10.34477 -78.12049 30034 ft 484 kts 46°
2026-05-06 20:04 10.36760 -78.09542 30375 ft 482 kts 46°
2026-05-06 20:05 10.39005 -78.07074 30735 ft 479 kts 46°
2026-05-06 20:05 10.41276 -78.04577 30973 ft 480 kts 46°
2026-05-06 20:05 10.43537 -78.02094 31332 ft 478 kts 45°
2026-05-06 20:05 10.45729 -77.99682 31580 ft 478 kts 45°
2026-05-06 20:06 10.47993 -77.97193 31739 ft 481 kts 45°
2026-05-06 20:06 10.50264 -77.94696 31968 ft 481 kts 46°
2026-05-06 20:06 10.52537 -77.92196 32173 ft 482 kts 46°
2026-05-06 20:06 10.54815 -77.89688 32379 ft 483 kts 45°
2026-05-06 20:07 10.57092 -77.87181 32633 ft 483 kts 46°
2026-05-06 20:07 10.59375 -77.84668 32740 ft 485 kts 45°
2026-05-06 20:07 10.63961 -77.79617 32872 ft 486 kts 46°
2026-05-06 20:08 10.68593 -77.74514 32875 ft 493 kts 46°
2026-05-06 20:08 10.73239 -77.69390 32884 ft 497 kts 46°
2026-05-06 20:09 10.77902 -77.64245 32868 ft 490 kts 45°
2026-05-06 20:09 10.82502 -77.59168 32883 ft 487 kts 46°
2026-05-06 20:10 10.87104 -77.54086 32885 ft 488 kts 46°
2026-05-06 20:10 10.91700 -77.49010 32882 ft 491 kts 46°
2026-05-06 20:11 10.96343 -77.43878 32878 ft 492 kts 45°
2026-05-06 20:11 11.00973 -77.38811 32881 ft 492 kts 45°
2026-05-06 20:12 11.05713 -77.33797 32876 ft 490 kts 45°
2026-05-06 20:12 11.10449 -77.28799 33080 ft 488 kts 45°
2026-05-06 20:13 11.12790 -77.26318 33428 ft 485 kts 45°
2026-05-06 20:13 11.15130 -77.23832 33589 ft 486 kts 45°
2026-05-06 20:13 11.17467 -77.21346 33768 ft 487 kts 45°
2026-05-06 20:13 11.19809 -77.18854 33951 ft 487 kts 45°
2026-05-06 20:14 11.22152 -77.16357 34132 ft 487 kts 44°
2026-05-06 20:14 11.24495 -77.13862 34299 ft 487 kts 45°
2026-05-06 20:14 11.26835 -77.11368 34433 ft 488 kts 44°
2026-05-06 20:14 11.29188 -77.08862 34479 ft 491 kts 44°
2026-05-06 20:15 11.33923 -77.03815 34623 ft 494 kts 46°
2026-05-06 20:15 11.38576 -76.98871 34768 ft 495 kts 45°
2026-05-06 20:16 11.43457 -76.93927 34858 ft 491 kts 42°
2026-05-06 20:16 11.48352 -76.89061 34876 ft 491 kts 43°
2026-05-06 20:17 11.53244 -76.84169 34885 ft 492 kts 43°
2026-05-06 20:17 11.58093 -76.79292 34882 ft 493 kts 44°
2026-05-06 20:18 11.62977 -76.74368 34880 ft 494 kts 43°
2026-05-06 20:18 11.67872 -76.69430 34882 ft 493 kts 43°
2026-05-06 20:19 11.72755 -76.64505 34885 ft 493 kts 44°
2026-05-06 20:19 11.77637 -76.59578 34881 ft 493 kts 43°
2026-05-06 20:20 11.82473 -76.54694 34881 ft 492 kts 43°
2026-05-06 20:20 11.87335 -76.49784 34886 ft 491 kts 43°
2026-05-06 20:21 11.92198 -76.44868 34884 ft 492 kts 44°
2026-05-06 20:21 11.97067 -76.39946 34886 ft 492 kts 44°
2026-05-06 20:22 12.01930 -76.35022 34890 ft 493 kts 43°
2026-05-06 20:22 12.06810 -76.30080 34899 ft 493 kts 44°
2026-05-06 20:23 12.11670 -76.25157 34889 ft 494 kts 43°
2026-05-06 20:23 12.16558 -76.20203 34883 ft 494 kts 43°
2026-05-06 20:24 12.21400 -76.15292 34882 ft 493 kts 43°
2026-05-06 20:24 12.26288 -76.10331 34888 ft 493 kts 44°
2026-05-06 20:25 12.31159 -76.05389 34884 ft 494 kts 43°
2026-05-06 20:25 12.35214 -76.01277 34882 ft 494 kts 43°
2026-05-06 20:26 12.40005 -75.96414 34890 ft 494 kts 44°
2026-05-06 20:26 12.44875 -75.91466 34894 ft 493 kts 43°
2026-05-06 20:27 12.49742 -75.86518 34889 ft 492 kts 43°
2026-05-06 20:27 12.54561 -75.81615 34894 ft 491 kts 43°
2026-05-06 20:28 12.59406 -75.76684 34896 ft 491 kts 43°
2026-05-06 20:28 12.64263 -75.71742 34890 ft 491 kts 43°
2026-05-06 20:29 12.69081 -75.66830 34898 ft 492 kts 43°
2026-05-06 20:29 12.73934 -75.61880 34898 ft 492 kts 44°
2026-05-06 20:30 12.81191 -75.54477 34897 ft 488 kts 43°
2026-05-06 20:31 12.85993 -75.49573 34897 ft 486 kts 43°
2026-05-06 20:31 12.90780 -75.44684 34896 ft 485 kts 42°
2026-05-06 20:32 12.95543 -75.39813 34903 ft 486 kts 43°
2026-05-06 20:32 13.00332 -75.34916 34914 ft 487 kts 43°
2026-05-06 20:33 13.05116 -75.30018 34906 ft 488 kts 43°
2026-05-06 20:33 13.09923 -75.25093 34907 ft 484 kts 44°
2026-05-06 20:34 13.14626 -75.20268 34911 ft 473 kts 43°